Time,TemperatureF,DewpointF,PressureIn,WindDirection,WindDirectionDegrees,WindSpeedMPH,WindSpeedGustMPH,Humidity,HourlyPrecipIn,Conditions,Clouds,dailyrainin,SoftwareType,DateUTC
2013-05-12 00:05:00,55.0,54.4,29.79,NNW,337,5.3,-999.0,98,-99.99,,,0.00,Acu-Link.com,2013-05-12 04:05:00,
2013-05-12 00:20:00,54.7,54.1,29.79,ENE,67,6.3,-999.0,98,-99.99,,,0.00,Acu-Link.com,2013-05-12 04:20:00,
2013-05-12 00:36:00,54.1,53.5,29.78,NW,315,7.3,-999.0,98,-99.99,,,0.00,Acu-Link.com,2013-05-12 04:36:00,
2013-05-12 00:51:00,53.6,53.0,29.78,NNW,337,7.8,-999.0,98,-99.99,,,0.00,Acu-Link.com,2013-05-12 04:51:00,
2013-05-12 01:06:00,53.4,52.8,29.79,NNW,337,7.8,-999.0,98,-99.99,,,0.00,Acu-Link.com,2013-05-12 05:06:00,
2013-05-12 01:22:00,53.2,52.6,29.77,WNW,292,4.2,-999.0,98,-99.99,,,0.00,Acu-Link.com,2013-05-12 05:22:00,
2013-05-12 01:37:00,52.5,52.0,29.76,NNW,337,8.9,-999.0,98,-99.99,,,0.00,Acu-Link.com,2013-05-12 05:37:00,
2013-05-12 01:52:00,52.5,52.0,29.78,NNW,337,7.8,-999.0,98,-99.99,,,0.00,Acu-Link.com,2013-05-12 05:52:00,
2013-05-12 02:07:00,51.4,50.9,29.77,North,0,7.8,-999.0,98,-99.99,,,0.00,Acu-Link.com,2013-05-12 06:07:00,
2013-05-12 02:22:00,51.1,50.6,29.79,WNW,292,4.2,-999.0,98,-99.99,,,0.00,Acu-Link.com,2013-05-12 06:22:00,
2013-05-12 02:38:00,50.7,50.2,29.80,NNW,337,5.3,-999.0,98,-99.99,,,0.00,Acu-Link.com,2013-05-12 06:38:00,
2013-05-12 02:53:00,50.2,49.7,29.80,NNW,337,2.7,-999.0,98,-99.99,,,0.00,Acu-Link.com,2013-05-12 06:53:00,
2013-05-12 03:08:00,50.0,49.5,29.80,NW,315,4.7,-999.0,98,-99.99,,,0.00,Acu-Link.com,2013-05-12 07:08:00,
2013-05-12 03:23:00,49.3,48.8,29.79,NW,315,3.7,-999.0,98,-99.99,,,0.00,Acu-Link.com,2013-05-12 07:23:00,
2013-05-12 03:38:00,48.9,48.4,29.78,WNW,292,5.3,-999.0,98,-99.99,,,0.00,Acu-Link.com,2013-05-12 07:38:00,
2013-05-12 03:54:00,48.7,48.2,29.79,NW,315,7.3,-999.0,98,-99.99,,,0.00,Acu-Link.com,2013-05-12 07:54:00,
2013-05-12 04:09:00,48.9,48.4,29.79,NNW,337,7.3,-999.0,98,-99.99,,,0.00,Acu-Link.com,2013-05-12 08:09:00,
2013-05-12 04:24:00,48.7,48.2,29.80,NW,315,3.7,-999.0,98,-99.99,,,0.00,Acu-Link.com,2013-05-12 08:24:00,
2013-05-12 04:39:00,48.2,47.7,29.79,NW,315,3.7,-999.0,98,-99.99,,,0.00,Acu-Link.com,2013-05-12 08:39:00,
2013-05-12 04:54:00,47.7,47.2,29.81,SSW,202,3.2,-999.0,98,-99.99,,,0.00,Acu-Link.com,2013-05-12 08:54:00,
2013-05-12 05:10:00,47.5,47.0,29.80,NNE,22,2.2,-999.0,98,-99.99,,,0.00,Acu-Link.com,2013-05-12 09:10:00,
2013-05-12 05:25:00,47.5,47.0,29.80,NNW,337,5.8,-999.0,98,-99.99,,,0.00,Acu-Link.com,2013-05-12 09:25:00,
2013-05-12 05:40:00,47.7,47.2,29.80,NNW,337,7.8,-999.0,98,-99.99,,,0.00,Acu-Link.com,2013-05-12 09:40:00,
2013-05-12 05:55:00,47.7,47.2,29.81,NNW,337,5.3,-999.0,98,-99.99,,,0.00,Acu-Link.com,2013-05-12 09:55:00,
2013-05-12 06:10:00,47.5,47.0,29.80,WNW,292,4.7,-999.0,98,-99.99,,,0.00,Acu-Link.com,2013-05-12 10:10:00,
2013-05-12 06:25:00,46.9,46.4,29.81,NW,315,3.2,-999.0,98,-99.99,,,0.00,Acu-Link.com,2013-05-12 10:25:00,
2013-05-12 06:40:00,46.8,46.3,29.83,NW,315,0.0,-999.0,98,-99.99,,,0.00,Acu-Link.com,2013-05-12 10:40:00,
2013-05-12 06:56:00,47.3,46.8,29.83,NW,315,3.7,-999.0,98,-99.99,,,0.00,Acu-Link.com,2013-05-12 10:56:00,
2013-05-12 07:11:00,47.8,47.3,29.82,NNW,337,5.3,-999.0,98,-99.99,,,0.00,Acu-Link.com,2013-05-12 11:11:00,
2013-05-12 07:26:00,48.7,48.2,29.83,NW,315,6.3,-999.0,98,-99.99,,,0.00,Acu-Link.com,2013-05-12 11:26:00,
2013-05-12 07:41:00,50.9,50.4,29.83,North,0,6.3,-999.0,98,-99.99,,,0.00,Acu-Link.com,2013-05-12 11:41:00,
2013-05-12 07:56:00,51.3,50.8,29.84,NNW,337,3.7,-999.0,98,-99.99,,,0.00,Acu-Link.com,2013-05-12 11:56:00,
2013-05-12 08:11:00,53.1,52.5,29.84,NNW,337,2.7,-999.0,98,-99.99,,,0.00,Acu-Link.com,2013-05-12 12:11:00,
2013-05-12 08:26:00,53.2,52.6,29.84,NNW,337,4.7,-999.0,98,-99.99,,,0.00,Acu-Link.com,2013-05-12 12:26:00,
2013-05-12 08:42:00,53.4,52.8,29.85,NNW,337,4.7,-999.0,98,-99.99,,,0.00,Acu-Link.com,2013-05-12 12:42:00,
2013-05-12 08:57:00,55.8,55.2,29.86,NNW,337,5.8,-999.0,98,-99.99,,,0.00,Acu-Link.com,2013-05-12 12:57:00,
2013-05-12 09:12:00,57.2,56.6,29.86,NW,315,4.2,-999.0,98,-99.99,,,0.00,Acu-Link.com,2013-05-12 13:12:00,
2013-05-12 09:27:00,59.5,58.9,29.87,NNW,337,4.2,-999.0,98,-99.99,,,0.00,Acu-Link.com,2013-05-12 13:27:00,
2013-05-12 09:43:00,60.1,59.5,29.87,NNW,337,3.7,-999.0,98,-99.99,,,0.00,Acu-Link.com,2013-05-12 13:43:00,
2013-05-12 09:58:00,61.7,58.4,29.85,NNE,22,3.2,-999.0,89,-99.99,,,0.00,Acu-Link.com,2013-05-12 13:58:00,
2013-05-12 10:13:00,64.4,58.8,29.85,NNE,22,2.7,-999.0,82,-99.99,,,0.00,Acu-Link.com,2013-05-12 14:13:00,
2013-05-12 10:28:00,65.5,58.5,29.86,NNW,337,4.2,-999.0,78,-99.99,,,0.00,Acu-Link.com,2013-05-12 14:28:00,
2013-05-12 10:43:00,66.9,58.7,29.86,NNW,337,3.2,-999.0,75,-99.99,,,0.00,Acu-Link.com,2013-05-12 14:43:00,
2013-05-12 10:58:00,67.6,57.5,29.86,NNW,337,3.7,-999.0,70,-99.99,,,0.00,Acu-Link.com,2013-05-12 14:58:00,
2013-05-12 11:13:00,67.1,57.8,29.86,NNE,22,1.7,-999.0,72,-99.99,,,0.00,Acu-Link.com,2013-05-12 15:13:00,
2013-05-12 11:28:00,66.4,55.9,29.87,NNW,337,2.2,-999.0,69,-99.99,,,0.00,Acu-Link.com,2013-05-12 15:28:00,
2013-05-12 11:44:00,66.6,56.9,29.87,NE,45,4.7,-999.0,71,-99.99,,,0.00,Acu-Link.com,2013-05-12 15:44:00,
2013-05-12 11:59:00,67.1,54.9,29.87,NNW,337,3.7,-999.0,65,-99.99,,,0.00,Acu-Link.com,2013-05-12 15:59:00,
2013-05-12 12:14:00,67.3,56.8,29.87,NNW,337,6.3,-999.0,69,-99.99,,,0.00,Acu-Link.com,2013-05-12 16:14:00,
2013-05-12 12:29:00,65.5,54.7,29.86,West,270,6.3,-999.0,68,-99.99,,,0.00,Acu-Link.com,2013-05-12 16:29:00,
2013-05-12 12:45:00,67.3,55.5,29.85,NNW,337,5.8,-999.0,66,-99.99,,,0.00,Acu-Link.com,2013-05-12 16:45:00,
2013-05-12 13:00:00,65.8,52.0,29.85,WNW,292,4.7,-999.0,61,-99.99,,,0.00,Acu-Link.com,2013-05-12 17:00:00,
2013-05-12 13:15:00,67.6,52.3,29.86,SE,135,2.7,-999.0,58,-99.99,,,0.00,Acu-Link.com,2013-05-12 17:15:00,
2013-05-12 13:31:00,69.4,51.0,29.85,NNE,22,4.2,-999.0,52,-99.99,,,0.00,Acu-Link.com,2013-05-12 17:31:00,
2013-05-12 13:46:00,69.4,51.0,29.85,WNW,292,7.8,-999.0,52,-99.99,,,0.00,Acu-Link.com,2013-05-12 17:46:00,
2013-05-12 14:01:00,67.3,50.1,29.85,SSW,202,2.2,-999.0,54,-99.99,,,0.00,Acu-Link.com,2013-05-12 18:01:00,
2013-05-12 14:16:00,69.6,52.7,29.86,East,90,2.7,-999.0,55,-99.99,,,0.00,Acu-Link.com,2013-05-12 18:16:00,
2013-05-12 14:31:00,68.4,50.1,29.85,NNE,22,3.7,-999.0,52,-99.99,,,0.00,Acu-Link.com,2013-05-12 18:31:00,
2013-05-12 14:46:00,69.8,52.9,29.84,ESE,112,4.7,-999.0,55,-99.99,,,0.00,Acu-Link.com,2013-05-12 18:46:00,
2013-05-12 15:01:00,67.8,50.0,29.84,NNE,22,2.7,-999.0,53,-99.99,,,0.00,Acu-Link.com,2013-05-12 19:01:00,
2013-05-12 15:16:00,68.5,49.6,29.84,ESE,112,3.2,-999.0,51,-99.99,,,0.00,Acu-Link.com,2013-05-12 19:16:00,
2013-05-12 15:32:00,68.4,50.1,29.84,WNW,292,11.9,-999.0,52,-99.99,,,0.00,Acu-Link.com,2013-05-12 19:32:00,
2013-05-12 15:47:00,66.7,48.5,29.84,ESE,112,3.7,-999.0,52,-99.99,,,0.00,Acu-Link.com,2013-05-12 19:47:00,
2013-05-12 16:02:00,66.9,49.7,29.84,ENE,67,3.7,-999.0,54,-99.99,,,0.00,Acu-Link.com,2013-05-12 20:02:00,
2013-05-12 16:17:00,68.5,49.6,29.83,ENE,67,4.2,-999.0,51,-99.99,,,0.00,Acu-Link.com,2013-05-12 20:17:00,
2013-05-12 16:32:00,68.9,49.5,29.82,West,270,4.7,-999.0,50,-99.99,,,0.00,Acu-Link.com,2013-05-12 20:32:00,
2013-05-12 16:47:00,64.9,48.3,29.83,NW,315,4.7,-999.0,55,-99.99,,,0.00,Acu-Link.com,2013-05-12 20:47:00,
2013-05-12 17:03:00,66.4,49.2,29.83,NW,315,8.3,-999.0,54,-99.99,,,0.00,Acu-Link.com,2013-05-12 21:03:00,
2013-05-12 17:18:00,65.1,47.5,29.84,NW,315,5.8,-999.0,53,-99.99,,,0.00,Acu-Link.com,2013-05-12 21:18:00,
2013-05-12 17:33:00,64.6,47.1,29.84,North,0,3.7,-999.0,53,-99.99,,,0.00,Acu-Link.com,2013-05-12 21:33:00,
2013-05-12 17:48:00,63.7,47.7,29.85,NNE,22,5.8,-999.0,56,-99.99,,,0.00,Acu-Link.com,2013-05-12 21:48:00,
2013-05-12 18:03:00,61.5,44.2,29.86,NE,45,6.3,-999.0,53,-99.99,,,0.00,Acu-Link.com,2013-05-12 22:03:00,
2013-05-12 18:18:00,58.8,43.1,29.86,North,0,7.8,-999.0,56,-99.99,,,0.00,Acu-Link.com,2013-05-12 22:18:00,
2013-05-12 18:33:00,57.9,43.7,29.85,NW,315,6.8,-999.0,59,-99.99,,,0.00,Acu-Link.com,2013-05-12 22:33:00,
2013-05-12 18:48:00,55.4,42.2,29.86,ENE,67,7.3,-999.0,61,-99.99,,,0.00,Acu-Link.com,2013-05-12 22:48:00,
2013-05-12 19:04:00,54.5,42.2,29.86,NNW,337,7.8,-999.0,63,-99.99,,,0.00,Acu-Link.com,2013-05-12 23:04:00,
2013-05-12 19:19:00,53.4,41.9,29.87,North,0,6.8,-999.0,65,-99.99,,,0.00,Acu-Link.com,2013-05-12 23:19:00,
2013-05-12 19:34:00,52.9,41.5,29.86,WNW,292,7.8,-999.0,65,-99.99,,,0.00,Acu-Link.com,2013-05-12 23:34:00,
2013-05-12 19:50:00,52.2,41.6,29.87,NW,315,8.3,-999.0,67,-99.99,,,0.00,Acu-Link.com,2013-05-12 23:50:00,
2013-05-12 20:05:00,51.6,41.4,29.86,NW,315,8.3,-999.0,68,-99.99,,,0.00,Acu-Link.com,2013-05-13 00:05:00,
2013-05-12 20:20:00,50.9,41.1,29.87,NE,45,6.3,-999.0,69,-99.99,,,0.00,Acu-Link.com,2013-05-13 00:20:00,
2013-05-12 20:35:00,50.4,40.2,29.87,NNW,337,7.3,-999.0,68,-99.99,,,0.00,Acu-Link.com,2013-05-13 00:35:00,
2013-05-12 20:50:00,49.6,39.9,29.88,NE,45,7.3,-999.0,69,-99.99,,,0.00,Acu-Link.com,2013-05-13 00:50:00,
2013-05-12 21:05:00,49.1,40.1,29.88,NW,315,4.7,-999.0,71,-99.99,,,0.00,Acu-Link.com,2013-05-13 01:05:00,
2013-05-12 21:20:00,48.6,39.3,29.89,WNW,292,6.3,-999.0,70,-99.99,,,0.00,Acu-Link.com,2013-05-13 01:20:00,
2013-05-12 21:35:00,48.6,39.3,29.89,NW,315,5.8,-999.0,70,-99.99,,,0.00,Acu-Link.com,2013-05-13 01:35:00,
2013-05-12 21:51:00,48.2,39.2,29.92,NNW,337,4.7,-999.0,71,-99.99,,,0.00,Acu-Link.com,2013-05-13 01:51:00,
2013-05-12 22:06:00,47.3,39.1,29.92,WNW,292,4.2,-999.0,73,-99.99,,,0.00,Acu-Link.com,2013-05-13 02:06:00,
2013-05-12 22:21:00,46.9,38.7,29.92,NNW,337,5.8,-999.0,73,-99.99,,,0.00,Acu-Link.com,2013-05-13 02:21:00,
2013-05-12 22:37:00,46.8,37.5,29.92,WNW,292,5.8,-999.0,70,-99.99,,,0.00,Acu-Link.com,2013-05-13 02:37:00,
2013-05-12 22:52:00,46.6,38.1,29.93,NW,315,3.2,-999.0,72,-99.99,,,0.00,Acu-Link.com,2013-05-13 02:52:00,
2013-05-12 23:07:00,46.4,37.9,29.93,NNW,337,5.8,-999.0,72,-99.99,,,0.00,Acu-Link.com,2013-05-13 03:07:00,
2013-05-12 23:22:00,46.2,37.7,29.93,NNW,337,6.8,-999.0,72,-99.99,,,0.00,Acu-Link.com,2013-05-13 03:22:00,
2013-05-12 23:38:00,46.2,36.6,29.93,WNW,292,4.7,-999.0,69,-99.99,,,0.00,Acu-Link.com,2013-05-13 03:38:00,
2013-05-12 23:53:00,46.0,36.8,29.94,WNW,292,4.7,-999.0,70,-99.99,,,0.00,Acu-Link.com,2013-05-13 03:53:00,